Regional Weather Roundup
Issued by NWS Charleston, SC

Current Version | Previous Version | Graphics & Text | Print | Product List | Glossary On
Versions: 1 2 3 4 5 6 7 8 9 10 11 12 13 14 15 16 17 18 19 20 21 22 23 24 25 26 27 28 29 30 31 32 33 34 35 36 37 38 39 40 41 42 43 44 45 46 47 48 49 50
000 ASUS42 KCHS 220512 RWRCHS REGIONAL WEATHER ROUNDUP NATIONAL WEATHER SERVICE CHARLESTON SC 100 AM EDT THU JUN 22 2017 NOTE: "FAIR" INDICATES FEW OR NO CLOUDS BELOW 12,000 FEET WITH NO SIGNIFICANT WEATHER AND/OR OBSTRUCTIONS TO VISIBILITY. NOT ALL STATIONS ARE QUALITY CONTROLLED. USE DATA WITH CAUTION... ESPECIALLY DEWPOINT OBSERVATIONS. SCZ027-030-031-034>040-042>050-220600- ...SOUTHEAST SOUTH CAROLINA... CITY SKY/WX TMP DP RH WIND PRES REMARKS N CHARLESTON CLOUDY 77 75 93 CALM 30.10F WATERFRONT PRK N/A 79 78 97 VRB3 30.09F JOHNS ISLAND FAIR 79 77 94 CALM 30.10F PINOPOLIS N/A 75 75 100 VRB3 30.04S MONCKS CORNER FAIR 73 72 94 CALM 30.11S SUMMERVILLE FAIR 73 73 100 CALM 30.12S BEAUFORT MCAS CLOUDY 80 80 100 CALM 30.11S BEAUFORT ARPT FAIR 79 77 94 CALM 30.11S HILTON HEAD IS CLOUDY 81 79 94 S8G14 30.12S WALTERBORO MOCLDY 75 73 94 SE3 30.12S ALLENDALE CLOUDY 75 75 100 CALM 30.11R ...SOUTHERN MIDLANDS AND PEE DEE... CITY SKY/WX TMP DP RH WIND PRES REMARKS GEORGETOWN FAIR 75 73 94 CALM 30.12S KINGSTREE FAIR 72 72 100 CALM 30.11S ORANGEBURG PTCLDY 76 75 97 CALM 30.11F BARNWELL FAIR 77 75 94 CALM 30.12S AIKEN MOCLDY 72 72 100 S3 30.16S MANNING FAIR 73 73 100 CALM 30.11F COLUMBIA CLOUDY 76 72 87 CALM 30.10F SUMTER CLOUDY 75 73 93 S3 30.09F FLORENCE CLOUDY 74 73 97 S6 30.11S MYRTLE BEACH PTCLDY 78 75 90 SW5 30.12S N MYRTLE BEACH PTCLDY 77 76 96 SW7 30.10F $$ GAZ063-065-086>088-099>101-113>116-118-119-134>141-150-220600- ...SOUTHEAST GEORGIA... CITY SKY/WX TMP DP RH WIND PRES REMARKS SAVANNAH ARPT CLOUDY 78 76 93 S5 30.11F HUNTER AAF MOCLDY 80 80 100 S6 30.06F HX 90 FORT STEWART MOCLDY 75 73 95 CALM 30.08F STATESBORO PTCLDY 75 75 100 CALM 30.10F SYLVANIA PTCLDY 75 75 100 CALM 30.12F CLAXTON FAIR N/A N/A N/A CALM 30.10F ...CSRA...CENTRAL AND FAR SOUTHEAST GEORGIA... CITY SKY/WX TMP DP RH WIND PRES REMARKS THOMSON MOCLDY 76 73 91 SW3 30.16F AUGUSTA-BUSH CLOUDY 76 73 91 CALM 30.10F AUGUSTA-DANIEL CLOUDY 76 69 79 SE5 30.12F SWAINSBORO FAIR 75 75 100 E3 30.11F VIDALIA PTCLDY 77 73 88 SE3 30.10F EASTMAN FAIR 79 79 100 E6 30.12S HAZLEHURST LGT RAIN 79 79 100 CALM 30.08F ALMA CLOUDY 78 75 90 SE3 30.09F WAYCROSS CLOUDY 78 78 100 CALM 30.09F JESUP CLOUDY 77 73 88 CALM 30.10F FOG BAXLEY CLOUDY 79 79 100 CALM 30.09F BRUNSWICK CLOUDY 81 79 94 SE9 30.11S SAINT SIMONS CLOUDY 82 78 88 SE10 30.10F HX 91 $$ SCZ027-028-034-036>038-045-046-048>050-GAZ119-141-220600- ...LAKE AND SUPPLEMENTAL COASTAL OBSERVATIONS... STATION/POSITION TIME TEMP WIND PRES WAVE SWELL AIR SEA DIR/SP/G HT/PER HT/PER/DIR (UTC) (F) (DEG/KT/KT) (MB) (FT/S) (FT/S/D) WINYAH BAY NOT AVBL LAKE MURRAY 0420 77 190/ 9/ 11 1018.6S ACE BASIN NERRS 0345 79 CALM 1020.0 FORT PULASKI 0448 83 160/ 6/ 8 1020.0F SAPELO ISLAND 0400 81 160/ 8 1020.0 $$ ANZ835-935-AMZ111-154-330-350-352-354-370-450-454-472-220600- ...C-MAN AND BUOY OBSERVATIONS... STATION/POSITION TIME TEMP WIND PRES WAVE SWELL AIR SEA DIR/SP/G HT/PER HT/PER/DIR (UTC) (F) (DEG/KT/KT) (MB) (FT/S) (FT/S/D) BUOY 41004 0450 80 81 200/ 8/ 10 1019.4F 4/ 7 3/160/ 7 BUOY 41008 0350 81 81 130/ 8/ 12 1019.7 3/ 8 3/120/ 8 FOLLY BEACH CMAN 0400 81 190/ 10/ 11 1020.4S CAPERS NEARSHORE 0408 84 82 200/ 10/ 14 1019.8R FRIPP NEARSHORE 0408 81 83 180/ 10/ 12 1019.5F STATION/POSITION TIME TEMP WIND PRES WAVE SWELL AIR SEA DIR/SP/G HT/PER HT/PER/DIR (UTC) (F) (DEG/KT/KT) (MB) (FT/S) (FT/S/D) 5E ST. MARYS GA 0430 80 N/A 3/ 8 FRYING PAN BUOY 0450 80 81 210/ 12/ 14 1019.3F 3/ 7 2/150/ 7 BUOY 41025 0450 79 80 230/ 16/ 17 1018.6R 3/ 3 2/160/ 7 CAPE LOOKOUT NC 0400 78 230/ 6/ 9 1018.7S BUOY 41002 0350 81 82 190/ 12/ 14 1021.4 4/ 7 3/120/ 7 BUOY 41010 0450 82 83 150/ 14/ 17 1020.0F 6/ 8 5/130/ 8 ST AUGUSTINE FL 0500 75 78 310/ 1/ 2 1020.2F $$

USA.gov is the U.S. government's official web portal to all federal, state and local government web resources and services.